Change the Weather History Date:

Wednesday, January 1, 2014

  Actual Average Record
Temperature  
Mean Temperature 36 °F -  
Max Temperature 39 °F 35 °F 48 °F (2007)
Min Temperature 33 °F 22 °F 5 °F (1997)
Degree Days  
Heating Degree Days 29    
Moisture  
Dew Point 34 °F    
Average Humidity 93    
Maximum Humidity 100    
Minimum Humidity 81    
Precipitation  
Precipitation 0.00 in - - ()
Sea Level Pressure  
Sea Level Pressure 30.17 in    
Wind  
Wind Speed 8 mph ()    
Max Wind Speed 12 mph    
Max Gust Speed -    
Visibility 3.8 miles    
Events      
Averages and records for this station are not official NWS values.
T = Trace of Precipitation, MM = Missing Value Source: Averaged Metar Reports

Daily Weather History Graph

Daily Weather History Graph

Search for Another Location

Airport or City:

Trip Planner

Search our weather history database for the weather conditions in past years. The results will help you decide how hot, cold, wet, or windy it might be!

Date:

Astronomy

Jan. 01, 2014 Rise Set
Actual Time 7:30 AM CET 4:02 PM CET
Civil Twilight 6:54 AM CET 4:38 PM CET
Nautical Twilight 6:15 AM CET 5:17 PM CET
Astronomical Twilight 5:38 AM CET 5:54 PM CET
Moon 7:00 AM CET (1/1) 4:31 PM CET (1/1)
Length of Visible Light 9h 43m
Length of Day
8h 32m
Waning Crescent, 0% of the Moon is Illuminated
Jan 1
Waning Crescent
Jan 1
New
Jan 8
First Quarter
Jan 16
Full
Jan 24
Last Quarter

Hourly Weather History & Observations

Time (CET) Temp. Windchill Dew Point Humidity Pressure Visibility Wind Dir Wind Speed Gust Speed Precip Events Conditions
12:00 AM 35.6 °F 29.9 °F 35.6 °F 100% 30.21 in 2.8 mi East 6.9 mph - N/A   Mostly Cloudy
12:30 AM 35.6 °F 28.0 °F 33.8 °F 93% 30.21 in - East 10.4 mph - N/A   Mostly Cloudy
1:00 AM 35.6 °F 28.0 °F 33.8 °F 93% 30.21 in - ESE 10.4 mph - N/A   Mostly Cloudy
1:30 AM 33.8 °F 27.0 °F 33.8 °F 100% 30.21 in - ESE 8.1 mph - N/A   Mostly Cloudy
2:00 AM 35.6 °F 29.2 °F 33.8 °F 93% 30.21 in - ESE 8.1 mph - N/A   Overcast
2:30 AM 35.6 °F 28.6 °F 33.8 °F 93% 30.21 in - SE 9.2 mph - N/A   Overcast
3:00 AM 33.8 °F 26.4 °F 33.8 °F 100% 30.21 in - SE 9.2 mph - N/A   Overcast
3:30 AM 33.8 °F 27.7 °F 32.0 °F 93% 30.18 in 2.5 mi ESE 6.9 mph - N/A   Overcast
4:00 AM 33.8 °F 27.7 °F 33.8 °F 100% 30.18 in 2.5 mi ESE 6.9 mph - N/A   Overcast
4:30 AM 33.8 °F 26.4 °F 33.8 °F 100% 30.18 in 2.5 mi ESE 9.2 mph - N/A   Mostly Cloudy
5:00 AM 33.8 °F 25.8 °F 33.8 °F 100% 30.18 in 2.5 mi ESE 10.4 mph - N/A   Overcast
5:30 AM 33.8 °F 25.3 °F 33.8 °F 100% 30.18 in 4.3 mi SE 11.5 mph - N/A   Overcast
6:00 AM 33.8 °F 25.8 °F 32.0 °F 93% 30.18 in 4.3 mi SE 10.4 mph - N/A   Overcast
6:30 AM 33.8 °F 25.8 °F 32.0 °F 93% 30.18 in 4.3 mi SE 10.4 mph - N/A   Mostly Cloudy
7:00 AM 33.8 °F 25.8 °F 32.0 °F 93% 30.18 in 4.3 mi SE 10.4 mph - N/A   Mostly Cloudy
7:30 AM 33.8 °F 26.4 °F 32.0 °F 93% 30.18 in 3.7 mi SE 9.2 mph - N/A   Mostly Cloudy
8:00 AM 33.8 °F 27.0 °F 32.0 °F 93% 30.18 in 3.7 mi SE 8.1 mph - N/A   Mostly Cloudy
8:30 AM 33.8 °F 26.4 °F 32.0 °F 93% 30.18 in 3.7 mi SE 9.2 mph - N/A   Mostly Cloudy
9:00 AM 33.8 °F 26.4 °F 32.0 °F 93% 30.18 in 3.7 mi SE 9.2 mph - N/A   Mostly Cloudy
9:30 AM 35.6 °F 28.6 °F 32.0 °F 87% 30.18 in 3.7 mi SE 9.2 mph - N/A   Scattered Clouds
10:00 AM 35.6 °F 29.2 °F 32.0 °F 87% 30.21 in 3.7 mi SE 8.1 mph - N/A   Mostly Cloudy
10:30 AM 35.6 °F 29.9 °F 32.0 °F 87% 30.18 in 4.3 mi SE 6.9 mph - N/A   Mostly Cloudy
11:00 AM 35.6 °F 28.6 °F 33.8 °F 93% 30.18 in 4.3 mi SE 9.2 mph - N/A   Mostly Cloudy
11:30 AM 37.4 °F 31.4 °F 33.8 °F 87% 30.18 in 4.3 mi SE 8.1 mph - N/A   Overcast
12:00 PM 37.4 °F 31.4 °F 33.8 °F 87% 30.18 in 5.0 mi ESE 8.1 mph - N/A   Overcast
12:30 PM 37.4 °F 32.1 °F 33.8 °F 87% 30.18 in 5.0 mi ESE 6.9 mph - N/A   Overcast
1:00 PM 37.4 °F 30.8 °F 33.8 °F 87% 30.15 in 5.0 mi ESE 9.2 mph - N/A   Overcast
1:30 PM 37.4 °F 31.4 °F 33.8 °F 87% 30.15 in 5.0 mi ESE 8.1 mph - N/A   Overcast
2:00 PM 37.4 °F 31.4 °F 35.6 °F 93% 30.15 in 5.0 mi East 8.1 mph - N/A   Overcast
2:30 PM 39.2 °F 34.2 °F 35.6 °F 87% 30.15 in 5.0 mi East 6.9 mph - N/A   Overcast
3:00 PM 39.2 °F 34.2 °F 33.8 °F 81% 30.15 in 5.0 mi SE 6.9 mph - N/A   Overcast
3:30 PM 37.4 °F 32.1 °F 35.6 °F 93% 30.15 in 5.0 mi East 6.9 mph - N/A   Overcast
4:00 PM 37.4 °F 32.1 °F 35.6 °F 93% 30.15 in 3.7 mi East 6.9 mph - N/A   Overcast
4:30 PM 37.4 °F 32.8 °F 35.6 °F 93% 30.15 in 3.1 mi East 5.8 mph - N/A   Overcast
5:00 PM 37.4 °F 32.8 °F 35.6 °F 93% 30.15 in 3.1 mi East 5.8 mph - N/A   Overcast
5:30 PM 37.4 °F 32.1 °F 35.6 °F 93% 30.15 in 3.1 mi East 6.9 mph - N/A   Overcast
6:00 PM 37.4 °F 32.1 °F 35.6 °F 93% 30.15 in 3.1 mi East 6.9 mph - N/A   Overcast
6:30 PM 37.4 °F 32.8 °F 35.6 °F 93% 30.15 in 3.1 mi East 5.8 mph - N/A   Overcast
7:00 PM 37.4 °F 32.1 °F 35.6 °F 93% 30.15 in 3.1 mi East 6.9 mph - N/A   Overcast
7:30 PM 37.4 °F 30.8 °F 35.6 °F 93% 30.15 in 3.1 mi East 9.2 mph - N/A   Overcast
8:00 PM 37.4 °F 31.4 °F 35.6 °F 93% 30.15 in 3.1 mi East 8.1 mph - N/A   Mostly Cloudy
8:30 PM 37.4 °F 31.4 °F 35.6 °F 93% 30.15 in 3.1 mi ESE 8.1 mph - N/A   Mostly Cloudy
9:00 PM 37.4 °F 32.1 °F 35.6 °F 93% 30.15 in 3.1 mi ESE 6.9 mph - N/A   Overcast
9:30 PM 37.4 °F 33.8 °F 35.6 °F 93% 30.15 in 3.1 mi ESE 4.6 mph - N/A   Overcast
10:00 PM 37.4 °F 32.8 °F 35.6 °F 93% 30.15 in 3.7 mi ESE 5.8 mph - N/A   Overcast
10:30 PM 37.4 °F 31.4 °F 35.6 °F 93% 30.15 in 3.7 mi ESE 8.1 mph - N/A   Overcast
11:00 PM 37.4 °F 31.4 °F 35.6 °F 93% 30.12 in 3.7 mi ESE 8.1 mph - N/A   Overcast
11:30 PM 37.4 °F 32.8 °F 35.6 °F 93% 30.12 in 3.7 mi East 5.8 mph - N/A   Overcast